Tracking 35331 objects as of 15-Sep-2026
HD Live streaming from Space Station
objects crossing your sky now

STARLINK-11413

Track STARLINK-11413 now!
10-day predictions
STARLINK-11413 is classified as:


NORAD ID: 62593
Int'l Code: 2025-008G
Launch date: January 13, 2025
Source: United States (US)
Launch site: AIR FORCE EASTERN TEST RANGE (AFETR)
Your satellite tracking list
Your tracking list is empty




NASA's NSSDC Master Catalog

Two Line Element Set (TLE):
1 62593U 25008G   26257.61167111  .00132721  00000-0  10220-2 0  9999
2 62593  42.9993  67.6829 0003336 294.6709  65.3811 15.70821585 96891
Source of the keplerian elements: AFSPC